This demonstration page uses our WeatherBlox Daily Observations layout. Learn more.

Left ArrowRight Arrow

41.86663, -103.66717

Hourly Observations for January 25, 2017

Temp ( °F °C ) Dew Point ( °F °C ) Humidity (%) Winds ( mph kmh ) Pressure ( in mb ) Visibility ( mi km ) Precip ( " mm )
12:53 am 00:53 Cloudy with Light Snow 18 -7.8 13 -10.6 81 81 NW 10 17 30.02 1017 3 5 0.01 0.25
1:38 am 01:38 Cloudy with Light Snow 18 -8 12 -11 79 79 NW 8 13 30.18 1022 5 8 0.00 0.00
1:53 am 01:53 Cloudy with Light Snow 17 -8.3 13 -10.6 84 84 WNW 8 13 30.04 1017 5 8 0.00 0.03
2:08 am 02:08 Cloudy with Light Snow 18 -8 12 -11 79 79 WNW 7 11 30.18 1022 3 4 0.00 0.00
2:18 am 02:18 Cloudy with Light Snow 18 -8 12 -11 79 79 WNW 7 11 30.18 1022 3 5 0.00 0.00
2:53 am 02:53 Cloudy with Light Snow 18 -7.8 14 -10 84 84 WNW 10 17 30.04 1017 3 4 0.00 0.03
3:05 am 03:05 Cloudy with Light Snow 18 -7.8 13 -10.6 81 81 WNW 12 19 30.18 1022 5 8 0.00 0.03
3:53 am 03:53 Cloudy with Light Snow 17 -8.3 12 -11.1 80 80 WNW 12 19 30.06 1018 4 6 0.00 0.03
4:53 am 04:53 Cloudy with Light Snow 17 -8.3 12 -11.1 80 80 WNW 8 13 30.06 1018 4 6 0.01 0.25
5:05 am 05:05 Cloudy with Light Snow 17 -8.3 13 -10.6 84 84 NW 9 15 30.18 1022 3 4 0.00 0.03
5:17 am 05:17 Cloudy with Light Snow 17 -8.3 13 -10.6 84 84 NW 9 15 30.18 1022 2 3 0.00 0.03
5:35 am 05:35 Cloudy with Light Snow 17 -8.3 13 -10.6 84 84 NW 9 15 30.18 1022 3 4 0.00 0.03
5:44 am 05:44 Cloudy with Light Snow 18 -8 12 -11 79 79 WNW 8 13 30.18 1022 4 6 0.00 0.00
5:53 am 05:53 Cloudy 17 -8.3 12 -11.1 80 80 WNW 8 13 30.07 1018 9 14 0.00 0.03
6:53 am 06:53 Cloudy 15 -9.4 11 -11.7 84 84 NW 8 13 30.09 1019 10 16 0.00 0.00
7:53 am 07:53 Mostly Cloudy 12 -11.1 8 -13.3 84 84 NW 7 11 30.11 1020 10 16 0.00 0.00
8:53 am 08:53 Mostly Cloudy 16 -8.9 8 -13.3 71 71 WNW 7 11 30.12 1020 10 16 0.00 0.00
9:53 am 09:53 Cloudy 20 -6.7 12 -11.1 71 71 WNW 13 20 30.12 1020 10 16 0.00 0.00
10:53 am 10:53 Cloudy 24 -4.4 14 -10 65 65 NW 12 19 30.11 1020 10 16 0.00 0.00
11:53 am 11:53 Partly Cloudy 26 -3.3 14 -10 60 60 NW 23 37 30.10 1019 10 16 0.00 0.00
12:53 pm 12:53 Mostly Sunny 26 -3.3 14 -10 60 60 NW 18 30 30.08 1019 10 16 0.00 0.00
1:53 pm 13:53 Mostly Sunny 27 -2.8 14 -10 58 58 NW 18 30 30.09 1019 10 16 0.00 0.00
2:53 pm 14:53 Sunny 27 -2.8 14 -10 58 58 NW 20 31 30.10 1019 10 16 0.00 0.00
3:53 pm 15:53 Sunny 24 -4.4 13 -10.6 62 62 NW 12 19 30.14 1021 10 16 0.00 0.00
4:53 pm 16:53 Mostly Sunny 21 -6.1 12 -11.1 68 68 NW 7 11 30.16 1021 10 16 0.00 0.00
5:53 pm 17:53 Clear 21 -6.1 11 -11.7 65 65 WNW 10 17 30.17 1022 10 16 0.00 0.00
6:53 pm 18:53 Clear 22 -5.6 11 -11.7 63 63 WNW 13 20 30.19 1022 10 16 0.00 0.00
7:53 pm 19:53 Clear 19 -7.2 10 -12.2 68 68 WNW 10 17 30.22 1023 10 16 0.00 0.00
8:53 pm 20:53 Mostly Cloudy 16 -8.9 8 -13.3 71 71 WNW 10 17 30.23 1024 10 16 0.00 0.00
9:53 pm 21:53 Cloudy 18 -7.8 10 -12.2 71 71 WNW 10 17 30.22 1023 10 16 0.00 0.00
10:53 pm 22:53 Cloudy 19 -7.2 10 -12.2 68 68 W 13 20 30.22 1023 10 16 0.00 0.00
11:53 pm 23:53 Cloudy 19 -7.2 11 -11.7 71 71 W 9 15 30.22 1023 10 16 0.00 0.00

Powered by AerisWeather